| time (UTC) | temp F | wind direction | speed MPH | gust MPH | rain 1hr in | rain 24hr in | rain mn in | humidity % | barometer mb |
| 20260504081622 | 43 | 77 | 2.0 | 2.0 | 0.00 | 0.00 | 0.00 | 79 | 1014.2 |
| 20260504081117 | 43 | 114 | 1.0 | 2.0 | 0.00 | 0.00 | 0.00 | 79 | 1014.2 |
| 20260504080614 | 43 | 108 | 2.0 | 2.0 | 0.00 | 0.00 | 0.00 | 79 | 1014.2 |
| 20260504080111 | 43 | 98 | 1.0 | 2.0 | 0.00 | 0.00 | 0.00 | 79 | 1014.3 |
| 20260504050427 | 43 | 63 | 0.0 | 2.0 | 0.00 | 0.00 | 0.00 | 68 | 1014.2 |
| 20260504045924 | 43 | 73 | 0.0 | 2.0 | 0.00 | 0.00 | 0.00 | 67 | 1014.3 |
| 20260504045420 | 43 | 105 | 1.0 | 2.0 | 0.00 | 0.00 | 0.00 | 66 | 1014.4 |
| 20260504044916 | 43 | 76 | 0.0 | 2.0 | 0.00 | 0.00 | 0.00 | 68 | 1014.4 |
| 20260504044414 | 43 | 80 | 1.0 | 2.0 | 0.00 | 0.00 | 0.00 | 68 | 1014.5 |
| 20260504043911 | 42 | 84 | 0.0 | 2.0 | 0.00 | 0.00 | 0.00 | 70 | 1014.3 |
| 20260504043408 | 42 | 76 | 0.0 | 2.0 | 0.00 | 0.00 | 0.00 | 72 | 1014.4 |
| 20260504042905 | 41 | 76 | 0.0 | 2.0 | 0.00 | 0.00 | 0.00 | 74 | 1014.6 |
| 20260504042402 | 41 | 84 | 0.0 | 2.0 | 0.00 | 0.00 | 0.00 | 74 | 1014.4 |
| 20260504041858 | 41 | 102 | 1.0 | 2.0 | 0.00 | 0.00 | 0.00 | 74 | 1014.4 |
| 20260504041354 | 41 | 115 | 1.0 | 2.0 | 0.00 | 0.00 | 0.00 | 75 | 1014.3 |
| 20260504040850 | 41 | 69 | 0.0 | 1.0 | 0.00 | 0.00 | 0.00 | 74 | 1014.5 |
| 20260504040348 | 41 | 101 | 1.0 | 2.0 | 0.00 | 0.00 | 0.00 | 74 | 1014.3 |
| 20260504035844 | 42 | 126 | 3.0 | 3.0 | 0.00 | 0.00 | 0.00 | 73 | 1014.3 |
| 20260504035342 | 42 | 116 | 3.0 | 3.0 | 0.00 | 0.00 | 0.00 | 73 | 1014.3 |
| 20260504034838 | 42 | 104 | 1.0 | 2.0 | 0.00 | 0.00 | 0.00 | 71 | 1014.2 |
| 20260504034336 | 42 | 130 | 0.0 | 2.0 | 0.00 | 0.00 | 0.00 | 72 | 1014.3 |
| 20260504033833 | 42 | 87 | 0.0 | 1.0 | 0.00 | 0.00 | 0.00 | 72 | 1014.0 |
| 20260504033331 | 42 | 117 | 1.0 | 2.0 | 0.00 | 0.00 | 0.00 | 71 | 1014.0 |
| 20260504032827 | 42 | 113 | 0.0 | 2.0 | 0.00 | 0.00 | 0.00 | 72 | 1013.8 |
| 20260504032324 | 42 | 89 | 0.0 | 1.0 | 0.00 | 0.00 | 0.00 | 71 | 1013.7 |
| 20260504031821 | 43 | 112 | 2.0 | 2.0 | 0.00 | 0.00 | 0.00 | 69 | 1013.9 |
| 20260504031318 | 43 | 86 | 2.0 | 2.0 | 0.00 | 0.00 | 0.00 | 68 | 1013.9 |
| 20260504030814 | 42 | 70 | 2.0 | 2.0 | 0.00 | 0.00 | 0.00 | 67 | 1013.8 |
| 20260504030312 | 43 | 139 | 2.0 | 2.0 | 0.00 | 0.00 | 0.00 | 68 | 1013.8 |
| 20260504025808 | 43 | 95 | 1.0 | 2.0 | 0.00 | 0.00 | 0.00 | 63 | 1013.9 |
| 20260504025305 | 44 | 94 | 1.0 | 2.0 | 0.00 | 0.00 | 0.00 | 63 | 1013.8 |
| 20260504024801 | 44 | 91 | 2.0 | 2.0 | 0.00 | 0.00 | 0.00 | 63 | 1013.7 |
| 20260504024258 | 44 | 104 | 0.0 | 2.0 | 0.00 | 0.00 | 0.00 | 61 | 1013.9 |
| 20260504023755 | 44 | 78 | 0.0 | 2.0 | 0.00 | 0.00 | 0.00 | 61 | 1013.7 |
| 20260504023251 | 44 | 74 | 1.0 | 2.0 | 0.00 | 0.00 | 0.00 | 62 | 1013.8 |
| 20260504022747 | 44 | 103 | 0.0 | 1.0 | 0.00 | 0.00 | 0.00 | 64 | 1014.0 |
| 20260504022244 | 44 | 108 | 2.0 | 3.0 | 0.00 | 0.00 | 0.00 | 63 | 1013.7 |
| 20260504021741 | 44 | 111 | 2.0 | 2.0 | 0.00 | 0.00 | 0.00 | 64 | 1013.8 |
| 20260504021238 | 44 | 113 | 2.0 | 2.0 | 0.00 | 0.00 | 0.00 | 62 | 1013.8 |
| 20260504020734 | 45 | 98 | 2.0 | 2.0 | 0.00 | 0.00 | 0.00 | 60 | 1013.7 |
| 20260504020232 | 45 | 114 | 2.0 | 2.0 | 0.00 | 0.00 | 0.00 | 61 | 1013.7 |
| 20260504015728 | 46 | 97 | 1.0 | 1.0 | 0.00 | 0.00 | 0.00 | 60 | 1013.7 |
| 20260504015224 | 46 | 95 | 2.0 | 2.0 | 0.00 | 0.00 | 0.00 | 58 | 1013.6 |
| 20260504014720 | 46 | 87 | 1.0 | 2.0 | 0.00 | 0.00 | 0.00 | 56 | 1013.7 |
| 20260504014217 | 46 | 99 | 0.0 | 1.0 | 0.00 | 0.00 | 0.00 | 58 | 1013.6 |
| 20260504013715 | 46 | 86 | 1.0 | 2.0 | 0.00 | 0.00 | 0.00 | 57 | 1013.6 |
| 20260504013212 | 47 | 151 | 1.0 | 2.0 | 0.00 | 0.00 | 0.00 | 57 | 1013.6 |
| 20260504012708 | 47 | 111 | 1.0 | 1.0 | 0.00 | 0.00 | 0.00 | 55 | 1013.7 |
| 20260504012207 | 48 | 108 | 1.0 | 2.0 | 0.00 | 0.00 | 0.00 | 54 | 1013.4 |
| 20260504011703 | 48 | 102 | 0.0 | 1.0 | 0.00 | 0.00 | 0.00 | 52 | 1013.4 |
| 20260504011200 | 49 | 99 | 1.0 | 2.0 | 0.00 | 0.00 | 0.00 | 51 | 1013.4 |
| 20260504010656 | 49 | 118 | 0.0 | 1.0 | 0.00 | 0.00 | 0.00 | 51 | 1013.3 |
| 20260504010151 | 49 | 139 | 0.0 | 1.0 | 0.00 | 0.00 | 0.00 | 50 | 1013.2 |
| 20260504005649 | 50 | 81 | 1.0 | 2.0 | 0.00 | 0.00 | 0.00 | 46 | 1013.5 |
| 20260504005145 | 50 | 91 | 1.0 | 1.0 | 0.00 | 0.00 | 0.00 | 49 | 1013.4 |
| 20260504004643 | 51 | 112 | 1.0 | 2.0 | 0.00 | 0.00 | 0.00 | 47 | 1013.3 |
| 20260504004140 | 52 | 137 | 2.0 | 2.0 | 0.00 | 0.00 | 0.00 | 47 | 1013.0 |
| 20260504003636 | 52 | 114 | 2.0 | 2.0 | 0.00 | 0.00 | 0.00 | 44 | 1013.0 |
| 20260504003133 | 53 | 95 | 1.0 | 2.0 | 0.00 | 0.00 | 0.00 | 40 | 1013.2 |
| 20260504002630 | 53 | 98 | 2.0 | 2.0 | 0.00 | 0.00 | 0.00 | 40 | 1013.0 |
| 20260504002128 | 58 | 255 | 0.0 | 2.0 | 0.00 | 0.00 | 0.00 | 31 | 1012.9 |
| 20260504001625 | 58 | 255 | 0.0 | 2.0 | 0.00 | 0.00 | 0.00 | 31 | 1013.0 |
| 20260504001120 | 58 | 255 | 0.0 | 2.0 | 0.00 | 0.00 | 0.00 | 31 | 1012.8 |
| 20260504000619 | 58 | 255 | 0.0 | 2.0 | 0.00 | 0.00 | 0.00 | 31 | 1012.8 |
| 20260504000116 | 58 | 255 | 0.0 | 2.0 | 0.00 | 0.00 | 0.00 | 31 | 1012.9 |
| 20260503235614 | 58 | 255 | 0.0 | 2.0 | 0.00 | 0.00 | 0.00 | 31 | 1012.9 |
| 20260503235110 | 58 | 255 | 0.0 | 2.0 | 0.00 | 0.00 | 0.00 | 31 | 1012.6 |
| 20260503234609 | 58 | 255 | 0.0 | 2.0 | 0.00 | 0.00 | 0.00 | 31 | 1012.5 |
| 20260503234106 | 59 | 189 | 1.0 | 2.0 | 0.00 | 0.00 | 0.00 | 31 | 1012.4 |
| 20260503233603 | 60 | 318 | 3.0 | 3.0 | 0.00 | 0.00 | 0.00 | 28 | 1012.6 |
| 20260503233058 | 60 | 318 | 3.0 | 3.0 | 0.00 | 0.00 | 0.00 | 28 | 1012.6 |
| 20260503232555 | 60 | 318 | 3.0 | 3.0 | 0.00 | 0.00 | 0.00 | 28 | 1012.5 |
| 20260503232053 | 60 | 318 | 3.0 | 3.0 | 0.00 | 0.00 | 0.00 | 28 | 1012.4 |
| 20260503231551 | 60 | 54 | 2.0 | 3.0 | 0.00 | 0.00 | 0.00 | 29 | 1012.2 |
| 20260503231047 | 60 | 188 | 1.0 | 6.0 | 0.00 | 0.00 | 0.00 | 28 | 1012.4 |
| 20260503230544 | 61 | 9 | 3.0 | 4.0 | 0.00 | 0.00 | 0.00 | 28 | 1012.3 |
| 20260503230042 | 61 | 52 | 2.0 | 3.0 | 0.00 | 0.00 | 0.00 | 28 | 1012.1 |
| 20260503225538 | 62 | 251 | 7.0 | 15.0 | 0.00 | 0.00 | 0.00 | 26 | 1012.6 |
| 20260503225033 | 62 | 307 | 7.0 | 10.0 | 0.00 | 0.00 | 0.00 | 27 | 1012.4 |
| 20260503224531 | 63 | 229 | 3.0 | 3.0 | 0.00 | 0.00 | 0.00 | 26 | 1012.6 |
| 20260503224029 | 63 | 255 | 2.0 | 7.0 | 0.00 | 0.00 | 0.00 | 26 | 1012.5 |
| 20260503223526 | 64 | 306 | 4.0 | 5.0 | 0.00 | 0.00 | 0.00 | 25 | 1012.5 |
| 20260503223022 | 63 | 83 | 2.0 | 3.0 | 0.00 | 0.00 | 0.00 | 26 | 1012.3 |
| 20260503222520 | 63 | 106 | 2.0 | 4.0 | 0.00 | 0.00 | 0.00 | 26 | 1012.5 |
| 20260503222018 | 63 | 341 | 2.0 | 6.0 | 0.00 | 0.00 | 0.00 | 27 | 1012.7 |
| 20260503221516 | 63 | 226 | 4.0 | 5.0 | 0.00 | 0.00 | 0.00 | 26 | 1012.3 |
| 20260503221013 | 63 | 348 | 0.0 | 2.0 | 0.00 | 0.00 | 0.00 | 26 | 1012.6 |
| 20260503220509 | 63 | 254 | 1.0 | 8.0 | 0.00 | 0.00 | 0.00 | 26 | 1012.5 |
| 20260503220006 | 62 | 55 | 1.0 | 6.0 | 0.00 | 0.00 | 0.00 | 26 | 1012.6 |
| 20260503215503 | 62 | 24 | 5.0 | 5.0 | 0.00 | 0.00 | 0.00 | 26 | 1012.6 |
| 20260503215000 | 62 | 292 | 7.0 | 11.0 | 0.00 | 0.00 | 0.00 | 26 | 1012.5 |
| 20260503214458 | 62 | 258 | 3.0 | 9.0 | 0.00 | 0.00 | 0.00 | 26 | 1012.7 |
| 20260503213955 | 62 | 57 | 7.0 | 11.0 | 0.00 | 0.00 | 0.00 | 25 | 1012.7 |
| 20260503213453 | 63 | 288 | 2.0 | 7.0 | 0.00 | 0.00 | 0.00 | 26 | 1012.6 |
| 20260503212949 | 62 | 249 | 10.0 | 14.0 | 0.00 | 0.00 | 0.00 | 25 | 1012.7 |
| 20260503212447 | 62 | 237 | 5.0 | 12.0 | 0.00 | 0.00 | 0.00 | 25 | 1012.5 |
| 20260503211944 | 62 | 283 | 3.0 | 8.0 | 0.00 | 0.00 | 0.00 | 27 | 1012.5 |
| 20260503211441 | 61 | 260 | 3.0 | 14.0 | 0.00 | 0.00 | 0.00 | 25 | 1012.4 |
| 20260503210936 | 62 | 247 | 6.0 | 10.0 | 0.00 | 0.00 | 0.00 | 25 | 1012.7 |
| 20260503210433 | 62 | 269 | 8.0 | 11.0 | 0.00 | 0.00 | 0.00 | 25 | 1012.3 |
| 20260503205928 | 62 | 159 | 3.0 | 9.0 | 0.00 | 0.00 | 0.00 | 25 | 1012.6 |
| 20260503205425 | 61 | 287 | 6.0 | 8.0 | 0.00 | 0.00 | 0.00 | 28 | 1012.6 |
| 20260503204921 | 62 | 271 | 5.0 | 6.0 | 0.00 | 0.00 | 0.00 | 27 | 1012.6 |
| 20260503204419 | 62 | 224 | 5.0 | 8.0 | 0.00 | 0.00 | 0.00 | 26 | 1012.6 |
| 20260503203916 | 61 | 219 | 2.0 | 11.0 | 0.00 | 0.00 | 0.00 | 28 | 1012.6 |
| 20260503203413 | 61 | 216 | 13.0 | 13.0 | 0.00 | 0.00 | 0.00 | 27 | 1012.6 |
| 20260503202910 | 61 | 288 | 5.0 | 7.0 | 0.00 | 0.00 | 0.00 | 27 | 1012.8 |
| 20260503202409 | 61 | 201 | 7.0 | 13.0 | 0.00 | 0.00 | 0.00 | 27 | 1012.7 |
| 20260503201907 | 61 | 253 | 2.0 | 9.0 | 0.00 | 0.00 | 0.00 | 27 | 1012.8 |
| 20260503201403 | 61 | 9 | 2.0 | 10.0 | 0.00 | 0.00 | 0.00 | 27 | 1012.7 |
| 20260503200901 | 61 | 259 | 4.0 | 16.0 | 0.00 | 0.00 | 0.00 | 26 | 1012.9 |
| 20260503200356 | 60 | 50 | 3.0 | 13.0 | 0.00 | 0.00 | 0.00 | 28 | 1013.1 |
| 20260503195854 | 59 | 65 | 4.0 | 11.0 | 0.00 | 0.00 | 0.00 | 29 | 1013.1 |
| 20260503195350 | 60 | 349 | 9.0 | 13.0 | 0.00 | 0.00 | 0.00 | 27 | 1013.5 |
| 20260503194848 | 60 | 226 | 7.0 | 11.0 | 0.00 | 0.00 | 0.00 | 29 | 1013.1 |
| 20260503194343 | 60 | 322 | 5.0 | 5.0 | 0.00 | 0.00 | 0.00 | 29 | 1013.4 |
| 20260503193840 | 59 | 236 | 3.0 | 5.0 | 0.00 | 0.00 | 0.00 | 30 | 1013.3 |
| 20260503193336 | 59 | 26 | 5.0 | 12.0 | 0.00 | 0.00 | 0.00 | 30 | 1013.6 |
| 20260503192832 | 59 | 268 | 10.0 | 14.0 | 0.00 | 0.00 | 0.00 | 29 | 1013.7 |
| 20260503192327 | 59 | 203 | 2.0 | 9.0 | 0.00 | 0.00 | 0.00 | 31 | 1013.5 |
| 20260503191824 | 59 | 167 | 2.0 | 3.0 | 0.00 | 0.00 | 0.00 | 31 | 1013.4 |
| 20260503191321 | 60 | 11 | 3.0 | 11.0 | 0.00 | 0.00 | 0.00 | 29 | 1013.6 |
| 20260503190818 | 60 | 251 | 3.0 | 9.0 | 0.00 | 0.00 | 0.00 | 29 | 1013.9 |
| 20260503190315 | 60 | 285 | 7.0 | 10.0 | 0.00 | 0.00 | 0.00 | 29 | 1013.7 |
| 20260503185812 | 59 | 266 | 7.0 | 12.0 | 0.00 | 0.00 | 0.00 | 31 | 1013.6 |
| 20260503185308 | 59 | 298 | 3.0 | 8.0 | 0.00 | 0.00 | 0.00 | 30 | 1013.9 |
| 20260503184807 | 58 | 296 | 3.0 | 9.0 | 0.00 | 0.00 | 0.00 | 33 | 1013.8 |
| 20260503184304 | 58 | 308 | 5.0 | 13.0 | 0.00 | 0.00 | 0.00 | 32 | 1013.9 |
| 20260503183800 | 59 | 335 | 8.0 | 15.0 | 0.00 | 0.00 | 0.00 | 30 | 1014.0 |
| 20260503183258 | 60 | 232 | 9.0 | 9.0 | 0.00 | 0.00 | 0.00 | 30 | 1014.0 |
| 20260503182755 | 59 | 67 | 2.0 | 4.0 | 0.00 | 0.00 | 0.00 | 33 | 1014.1 |
| 20260503182254 | 58 | 219 | 2.0 | 4.0 | 0.00 | 0.00 | 0.00 | 32 | 1014.0 |
| 20260503181750 | 58 | 243 | 5.0 | 7.0 | 0.00 | 0.00 | 0.00 | 31 | 1014.1 |
| 20260503181247 | 57 | 172 | 0.0 | 10.0 | 0.00 | 0.00 | 0.00 | 32 | 1014.3 |
| 20260503180743 | 57 | 285 | 2.0 | 11.0 | 0.00 | 0.00 | 0.00 | 35 | 1014.1 |
| 20260503180242 | 56 | 27 | 0.0 | 4.0 | 0.00 | 0.00 | 0.00 | 32 | 1014.1 |
| 20260503175738 | 57 | 14 | 2.0 | 11.0 | 0.00 | 0.00 | 0.00 | 32 | 1014.5 |
| 20260503175236 | 56 | 114 | 5.0 | 7.0 | 0.00 | 0.00 | 0.00 | 33 | 1014.6 |
| 20260503174732 | 55 | 255 | 3.0 | 7.0 | 0.00 | 0.00 | 0.00 | 35 | 1014.3 |
| 20260503174231 | 55 | 222 | 7.0 | 9.0 | 0.00 | 0.00 | 0.00 | 35 | 1014.5 |
| 20260503173730 | 56 | 46 | 4.0 | 6.0 | 0.00 | 0.00 | 0.00 | 35 | 1014.3 |
| 20260503173226 | 55 | 70 | 2.0 | 11.0 | 0.00 | 0.00 | 0.00 | 35 | 1014.5 |
| 20260503172724 | 55 | 75 | 2.0 | 6.0 | 0.00 | 0.00 | 0.00 | 34 | 1014.6 |
| 20260503172221 | 56 | 349 | 2.0 | 4.0 | 0.00 | 0.00 | 0.00 | 35 | 1014.5 |
| 20260503171717 | 55 | 103 | 3.0 | 8.0 | 0.00 | 0.00 | 0.00 | 33 | 1014.4 |
| 20260503171214 | 56 | 33 | 8.0 | 9.0 | 0.00 | 0.00 | 0.00 | 33 | 1014.6 |
| 20260503170711 | 55 | 218 | 5.0 | 14.0 | 0.00 | 0.00 | 0.00 | 34 | 1014.9 |
| 20260503170208 | 55 | 245 | 3.0 | 4.0 | 0.00 | 0.00 | 0.00 | 35 | 1014.9 |
| 20260503160130 | 53 | 93 | 1.0 | 7.0 | 0.00 | 0.00 | 0.00 | 38 | 1015.5 |
| 20260503150600 | 51 | 26 | 8.0 | 9.0 | 0.00 | 0.00 | 0.00 | 36 | 1015.5 |
| 20260503130949 | 47 | 49 | 0.0 | 5.0 | 0.00 | 0.00 | 0.00 | 47 | 1015.6 |
| 20260503130447 | 47 | 73 | 6.0 | 8.0 | 0.00 | 0.00 | 0.00 | 47 | 1015.6 |
| 20260503110338 | 40 | 286 | 4.0 | 5.0 | 0.00 | 0.00 | 0.00 | 65 | 1014.9 |